Regional Weather Roundup
Issued by NWS Columbia, SC

Home | Current Version | Previous Version | Text Only | Print | Product List | Glossary On
Versions: 1 2 3 4 5 6 7 8 9 10 11 12 13 14 15 16 17 18 19 20 21 22 23 24 25 26 27 28 29 30 31 32 33 34 35 36 37 38 39 40 41 42 43 44 45 46 47 48 49 50
000
ASUS42 KCAE 222310
RWRCAE
REGIONAL WEATHER ROUNDUP
NATIONAL WEATHER SERVICE COLUMBIA SC
700 PM EDT FRI MAY 22 2015

NOTE: "FAIR" INDICATES FEW OR NO CLOUDS BELOW 12,000 FEET WITH NO
SIGNIFICANT WEATHER AND/OR OBSTRUCTIONS TO VISIBILITY.

NOT ALL STATIONS ARE QUALITY CONTROLLED BY THE NATIONAL
WEATHER SERVICE. USE DATA WITH CAUTION...ESPECIALLY
DEWPOINT OBSERVATIONS.

SCZ001>056-GAZ040-063>065-077-230000-
...UPSTATE SOUTH CAROLINA...

CITY           SKY/WX    TMP DP  RH WIND       PRES   REMARKS
ANDERSON       SUNNY     76  48  37 SW7       30.19S
LIBERTY        CLEAR     76  44  31 SE5       30.19S
SPARTANBURG    SUNNY     77  37  24 SE5       30.20S
CLEMSON        SUNNY     77  46  33 VRB3      30.20F
GREENVILLE     SUNNY     76  39  26 SE3       30.21S
GREENWOOD      SUNNY     77  47  34 CALM      30.21S
GREER          SUNNY     74  42  31 S6        30.19F
ROCK HILL      MOSUNNY   74  39  28 VRB3      30.22S
LAURENS        CLEAR     75  50  41 NE3       30.20S


...CENTRAL SOUTH CAROLINA...

CITY           SKY/WX    TMP DP  RH WIND       PRES   REMARKS
COLUMBIA APT   MOSUNNY   79  48  33 W6        30.18R
COLUMBIA OWENS SUNNY     80  43  26 CALM      30.19R
DARLINGTON     SUNNY     77  46  33 NE8       30.20S
FLORENCE       SUNNY     76  49  38 NE8       30.18R
MCENTIRE ANGB  SUNNY     77  49  36 NE3       30.18R
ORANGEBURG     MOSUNNY   78  49  35 N7        30.18R
SUMTER SHAW    SUNNY     78  48  34 NW7       30.17R
NEWBERRY       CLEAR     75  41  29 NE5       30.23S
AIKEN          FAIR      75  45  33 N7        30.23R
BARNWELL       FAIR      79  50  36 NE6       30.18S
MANNING        FAIR      77  36  22 NE3       30.18R
CAMDEN         FAIR      77  41  27 CALM      30.20R
LANCASTER      PTCLDY    75  39  27 NE3       30.21S
WINNSBORO      CLEAR     75  43  31 N5        30.20R


...EASTERN AND COASTAL SOUTH CAROLINA...

CITY           SKY/WX    TMP DP  RH WIND       PRES   REMARKS
MYRTLE BEACH   MOSUNNY   72  55  56 SE8       30.20S
N MYRTLE BCH   PTSUNNY   71  58  63 SE6       30.18S
CONWAY         FAIR      72  59  64 SE5       30.18S
MARION         FAIR     N/A N/A N/A N3        30.19R
HARTSVILLE     FAIR      77  43  29 N6        30.19R
FLORENCE       SUNNY     76  49  38 NE8       30.18R
DARLINGTON     SUNNY     77  46  33 NE8       30.20S
CHARLESTON APT MOSUNNY   74  59  59 SE7       30.17S
MOUNT PLEASANT FAIR      73  61  64 E5        30.18S
WALTERBORO     MOCLDY    77  52  41 E6        30.18S
BEAUFORT       PTSUNNY   75  60  59 E7        30.17S


...EASTERN GEORGIA...

CITY           SKY/WX    TMP DP  RH WIND       PRES   REMARKS
AUGUSTA BUSH F SUNNY     79  50  36 N8        30.17R
AUGUSTA DANIEL MOSUNNY   80  50  34 N9        30.19R
THOMSON        SUNNY     78  55  44 N7        30.24S
WASHINGTON     FAIR      81  59  47 CALM      30.20S
CLAXTON        FAIR      77  63  61 E3        30.15R
SYLVANIA       CLEAR     80  57  44 NE7       30.18R
STATESBORO     SUNNY     79  60  52 NE3       30.15S
SAVANNAH       PTSUNNY   75  60  59 E12       30.16R


...SOUTHERN NORTH CAROLINA...

CITY           SKY/WX    TMP DP  RH WIND       PRES   REMARKS
CHARLOTTE      MOSUNNY   75  34  22 CALM      30.21S
MONROE         PTSUNNY   70  42  36 E3        30.20S
WADESBORO      PTCLDY    74  38  28 N5        30.21R
ROCKINGHAM     PTCLDY    73  44  35 NW6       30.21R
RUTHERFORDTON  SUNNY     74  40  28 S3        30.21S
ASHEVILLE      SUNNY     71  31  22 N14       30.24R

$$



USA.gov is the U.S. government's official web portal to all federal, state and local government web resources and services.